User: anonymous   Login
Location: Unspecified
(0.0000°N, 0.0000°E)
Time: 13:37:17
(UTC+01:00)
Language:

Delta 2 Rocket - Orbit

View from above orbital plane
View from above orbital plane
View from above satellite
View from above satellite

Ground track
Ground track

The orbit data is extracted from the following two-line orbital elements,

1 20453U 90008B   14304.84850607  .00015117  00000-0  95277-3 0  1171
2 20453 035.6262 083.4920 0318346 142.0630 220.2967 14.75005001305950
Epoch (UTC): 31 October 2014 20:21:50
Eccentricity: 0.0318346
inclination: 35.6262°
perigee height: 421 km
apogee height: 869 km
right ascension of ascending node: 83.4920°
argument of perigee: 142.0630°
revolutions per day: 14.75005001
mean anomaly at epoch: 220.2967°
orbit number at epoch: 30595

The dashed part of the orbit path shows where the satellite is in the earth's shadow,  

DLR